User: anonymous   Login
Location: Fort Wayne
(41.1310°N, 85.1290°W)
Time: 22:57:55
(UTC-04:00)
Language:

Meteor 2-10 Rocket - Orbit

View from above orbital plane
View from above orbital plane
View from above satellite
View from above satellite

Ground track
Ground track

The orbit data is extracted from the following two-line orbital elements,

1 14453U 83109B   18169.28885548 +.00000062 +00000-0 +19549-4 0  9991
2 14453 081.1676 098.0047 0106153 084.5082 276.8194 14.24696279799584
Epoch (UTC): 18 June 2018 06:55:57
Eccentricity: 0.0106153
inclination: 81.1676°
perigee height: 733 km
apogee height: 886 km
right ascension of ascending node: 98.0047°
argument of perigee: 84.5082°
revolutions per day: 14.24696279
mean anomaly at epoch: 276.8194°
orbit number at epoch: 79958

The dashed part of the orbit path shows where the satellite is in the earth's shadow,  

DLR